Gastonia, NC

2:44 PM EDT on March 27, 2017 (GMT -0400)
Gastonia Municipal

Weather History for KAKH - April, 2014

Change the Weather History Date:

Thursday, April 10, 2014

  Actual Average (KCLT) Record (KCLT)
Temperature  
Mean Temperature 55 °F -  
Max Temperature 73 °F 67 °F 90 °F (2001)
Min Temperature 37 °F 44 °F 28 °F (1985)
Degree Days  
Heating Degree Days 10    
Growing Degree Days 5 (Base 50)    
Moisture  
Dew Point 35 °F    
Average Humidity 47    
Maximum Humidity 89    
Minimum Humidity 23    
Precipitation  
Precipitation 0.00 in - - ()
Sea Level Pressure  
Sea Level Pressure 30.19 in    
Wind  
Wind Speed 2 mph (SSW)    
Max Wind Speed 10 mph    
Max Gust Speed 20 mph    
Visibility 10 miles    
Events      
Averages and records for this station are not official NWS values.
T = Trace of Precipitation, MM = Missing Value Source: NWS Daily Summary

Daily Weather History Graph

Daily Weather History Graph

Search for Another Location

Airport or City:

Trip Planner

Search our weather history database for the weather conditions in past years. The results will help you decide how hot, cold, wet, or windy it might be!

Date:

Astronomy

Apr. 10, 2014 Rise Set
Actual Time 6:59 AM EDT 7:53 PM EDT
Civil Twilight 6:33 AM EDT 8:19 PM EDT
Nautical Twilight 6:02 AM EDT 8:49 PM EDT
Astronomical Twilight 5:30 AM EDT 9:21 PM EDT
Moon 3:44 PM EDT (4/10) 4:11 AM EDT (4/10)
Length of Visible Light 13h 46m
Length of Day
12h 54m
Waxing Gibbous, 79% of the Moon is Illuminated
Apr 10
Waxing Gibbous
Apr 15
Full
Apr 22
Last Quarter
Apr 29
New
May 6
First Quarter

Hourly Weather History & Observations

Time (EDT) Temp. Dew Point Humidity Pressure Visibility Wind Dir Wind Speed Gust Speed Precip Events Conditions
12:54 AM 50.0 °F 34.0 °F 54% 30.14 in 10.0 mi Calm Calm - N/A   Clear
1:54 AM 48.0 °F 35.1 °F 61% 30.14 in 10.0 mi Calm Calm - N/A   Clear
2:54 AM 43.0 °F 36.0 °F 76% 30.15 in 10.0 mi Calm Calm - N/A   Clear
3:54 AM 42.1 °F 36.0 °F 79% 30.17 in 10.0 mi Calm Calm - N/A   Clear
4:54 AM 44.1 °F 34.0 °F 68% 30.17 in 10.0 mi Calm Calm - N/A   Clear
5:54 AM 42.1 °F 35.1 °F 76% 30.19 in 10.0 mi Calm Calm - N/A   Clear
6:54 AM 37.9 °F 35.1 °F 89% 30.23 in 10.0 mi Calm Calm - N/A   Clear
7:54 AM 41.0 °F 37.9 °F 89% 30.25 in 10.0 mi Calm Calm - N/A   Clear
8:54 AM 52.0 °F 37.0 °F 57% 30.27 in 10.0 mi Calm Calm - N/A   Clear
9:54 AM 61.0 °F 36.0 °F 39% 30.27 in 10.0 mi Calm Calm - N/A   Clear
10:54 AM 64.0 °F 33.1 °F 31% 30.27 in 10.0 mi SSE 8.1 mph - N/A   Clear
11:54 AM 66.0 °F 30.9 °F 27% 30.25 in 10.0 mi South 9.2 mph - N/A   Clear
12:54 PM 68.0 °F 30.9 °F 25% 30.23 in 10.0 mi SW 8.1 mph - N/A   Clear
1:54 PM 70.0 °F 33.1 °F 26% 30.21 in 10.0 mi Variable 6.9 mph 16.1 mph N/A   Clear
2:54 PM 71.1 °F 30.9 °F 23% 30.19 in 10.0 mi SSW 9.2 mph 18.4 mph N/A   Clear
3:54 PM 72.0 °F 32.0 °F 23% 30.17 in 10.0 mi Variable 5.8 mph 17.3 mph N/A   Clear
4:54 PM 73.0 °F 34.0 °F 24% 30.16 in 10.0 mi SSW 10.4 mph 19.6 mph N/A   Clear
5:54 PM 73.0 °F 33.1 °F 23% 30.15 in 10.0 mi SW 6.9 mph - N/A   Clear
6:54 PM 71.1 °F 33.1 °F 25% 30.15 in 10.0 mi Variable 6.9 mph - N/A   Clear
7:54 PM 68.0 °F 34.0 °F 28% 30.16 in 10.0 mi SSW 6.9 mph - N/A   Clear
8:54 PM 60.1 °F 37.0 °F 42% 30.18 in 10.0 mi South 3.5 mph - N/A   Clear
9:54 PM 59.0 °F 37.9 °F 46% 30.18 in 10.0 mi SSW 4.6 mph - N/A   Clear
10:54 PM 55.0 °F 39.0 °F 55% 30.19 in 10.0 mi South 3.5 mph - N/A   Clear
11:54 PM 55.9 °F 37.9 °F 51% 30.18 in 10.0 mi SSW 4.6 mph - N/A   Clear